When you browse on this site, cookies collect data to enhance your experience and personalize the content and advertising you see.
Visit our Privacy Policy to learn more. By continuing to use the site, you agree to this use of cookies and data.
  • In Romania
  • List of Countries
  • For 7 days
  • Water Temperature
  • Satellite Maps
  • Weather Map
  • Weather Widgets
  • user-avatar
    Login

    Hourly Weather Albena

    Today, 20 June, Thursday

    Time Temperature Precipitation Wind Pressure Humidity
    00:00 +20°C° 0 mm 2 mps 744 mmHg 74%
    01:00 +20°C° 0 mm 2 mps 744 mmHg 74%
    02:00 +20°C° 0 mm 2 mps 743 mmHg 71%
    03:00 +20°C° 0 mm 2 mps 743 mmHg 71%
    04:00 +19°C° 0 mm 3 mps 743 mmHg 72%
    05:00 +19°C° 0 mm 3 mps 743 mmHg 73%
    06:00 +21°C° 0 mm 3 mps 743 mmHg 69%
    07:00 +24°C° 0 mm 2 mps 743 mmHg 64%
    08:00 +26°C° 0 mm 2 mps 743 mmHg 59%
    09:00 +27°C° 0 mm 2 mps 743 mmHg 56%
    10:00 +29°C° 0 mm 2 mps 743 mmHg 52%
    11:00 +30°C° 0 mm 2 mps 743 mmHg 48%
    12:00 +30°C° 0 mm 2 mps 743 mmHg 46%
    13:00 +31°C° 0 mm 2 mps 743 mmHg 45%
    14:00 +31°C° 0 mm 2 mps 743 mmHg 43%
    15:00 +31°C° 0 mm 2 mps 743 mmHg 45%
    16:00 +30°C° 0 mm 2 mps 743 mmHg 48%
    17:00 +30°C° 0 mm 2 mps 743 mmHg 50%
    18:00 +27°C° 0.1 mm 2 mps 743 mmHg 60%
    19:00 +25°C° 0.1 mm 2 mps 743 mmHg 70%
    20:00 +23°C° 0.1 mm 2 mps 743 mmHg 81%
    21:00 +21°C° 0.1 mm 2 mps 743 mmHg 84%
    22:00 +20°C° 0.1 mm 3 mps 743 mmHg 88%
    23:00 +19°C° 0.1 mm 3 mps 744 mmHg 92%

    Tomorrow, 21 June, Friday

    Time Temperature Precipitation Wind Pressure Humidity
    00:00 +19°C° 0 mm 3 mps 743 mmHg 92%
    01:00 +19°C° 0 mm 2 mps 743 mmHg 92%
    02:00 +19°C° 0 mm 2 mps 743 mmHg 91%
    03:00 +19°C° 0 mm 2 mps 743 mmHg 90%
    04:00 +19°C° 0 mm 2 mps 743 mmHg 88%
    05:00 +19°C° 0 mm 2 mps 743 mmHg 86%
    06:00 +20°C° 0 mm 2 mps 744 mmHg 81%
    07:00 +22°C° 0 mm 3 mps 744 mmHg 77%
    08:00 +25°C° 0 mm 3 mps 745 mmHg 72%
    09:00 +25°C° 0.5 mm 3 mps 745 mmHg 71%
    10:00 +26°C° 0.5 mm 2 mps 745 mmHg 70%
    11:00 +27°C° 0.5 mm 2 mps 745 mmHg 69%
    12:00 +27°C° 0.4 mm 3 mps 745 mmHg 68%
    13:00 +27°C° 0.4 mm 3 mps 745 mmHg 67%
    14:00 +27°C° 0.4 mm 4 mps 745 mmHg 66%
    15:00 +28°C° 0.1 mm 4 mps 745 mmHg 64%
    16:00 +28°C° 0.1 mm 4 mps 744 mmHg 63%
    17:00 +28°C° 0.1 mm 3 mps 744 mmHg 61%
    18:00 +27°C° 0.1 mm 3 mps 744 mmHg 67%
    19:00 +25°C° 0.1 mm 2 mps 744 mmHg 72%
    20:00 +24°C° 0.1 mm 2 mps 744 mmHg 78%
    21:00 +23°C° 0 mm 2 mps 744 mmHg 79%
    22:00 +23°C° 0 mm 2 mps 745 mmHg 81%
    23:00 +21°C° 0 mm 2 mps 745 mmHg 82%

    Day after tomorrow, 22 June, Saturday

    Time Temperature Precipitation Wind Pressure Humidity
    00:00 +21°C° 0 mm 2 mps 745 mmHg 82%
    01:00 +20°C° 0 mm 3 mps 745 mmHg 82%
    02:00 +20°C° 0 mm 3 mps 744 mmHg 82%
    03:00 +20°C° 0 mm 3 mps 744 mmHg 81%
    04:00 +20°C° 0 mm 3 mps 744 mmHg 80%
    05:00 +20°C° 0 mm 3 mps 744 mmHg 79%
    06:00 +22°C° 0 mm 3 mps 745 mmHg 74%
    07:00 +25°C° 0 mm 2 mps 745 mmHg 69%
    08:00 +26°C° 0 mm 2 mps 746 mmHg 65%
    09:00 +28°C° 0 mm 2 mps 746 mmHg 60%
    10:00 +29°C° 0 mm 2 mps 746 mmHg 55%
    11:00 +30°C° 0 mm 1 mps 746 mmHg 50%
    12:00 +31°C° 0 mm 2 mps 746 mmHg 49%
    13:00 +31°C° 0 mm 2 mps 746 mmHg 47%
    14:00 +32°C° 0 mm 2 mps 745 mmHg 46%
    15:00 +31°C° 0 mm 2 mps 745 mmHg 49%
    16:00 +30°C° 0 mm 2 mps 745 mmHg 52%
    17:00 +30°C° 0 mm 2 mps 745 mmHg 55%
    18:00 +28°C° 0.1 mm 2 mps 745 mmHg 61%
    19:00 +26°C° 0.1 mm 1 mps 745 mmHg 68%
    20:00 +25°C° 0.1 mm 1 mps 745 mmHg 74%
    21:00 +24°C° 0.3 mm 1 mps 745 mmHg 77%
    22:00 +24°C° 0.3 mm 1 mps 745 mmHg 79%
    23:00 +23°C° 0.3 mm 1 mps 745 mmHg 82%

    23 June, Sunday

    Time Temperature Precipitation Wind Pressure Humidity
    00:00 +23°C° 0.2 mm 1 mps 745 mmHg 82%
    01:00 +22°C° 0.2 mm 1 mps 745 mmHg 83%
    02:00 +22°C° 0.2 mm 1 mps 745 mmHg 83%
    03:00 +22°C° 0 mm 1 mps 745 mmHg 83%
    04:00 +22°C° 0 mm 1 mps 745 mmHg 83%
    05:00 +22°C° 0 mm 1 mps 745 mmHg 83%
    06:00 +24°C° 0 mm 1 mps 745 mmHg 77%
    07:00 +23°C° 0 mm 0 mps 745 mmHg 71%
    08:00 +25°C° 0 mm 0 mps 745 mmHg 65%
    09:00 +28°C° 0.3 mm 1 mps 745 mmHg 62%
    10:00 +29°C° 0.3 mm 2 mps 745 mmHg 59%
    11:00 +30°C° 0.3 mm 3 mps 745 mmHg 55%
    12:00 +30°C° 0.2 mm 3 mps 745 mmHg 54%
    13:00 +30°C° 0.2 mm 3 mps 745 mmHg 53%
    14:00 +30°C° 0.2 mm 4 mps 745 mmHg 52%
    15:00 +30°C° 0.1 mm 4 mps 745 mmHg 55%
    16:00 +29°C° 0.1 mm 4 mps 744 mmHg 58%
    17:00 +28°C° 0.1 mm 4 mps 744 mmHg 61%
    18:00 +27°C° 0.1 mm 3 mps 744 mmHg 68%
    19:00 +25°C° 0.1 mm 3 mps 744 mmHg 75%
    20:00 +24°C° 0.1 mm 2 mps 744 mmHg 82%
    21:00 +23°C° 0 mm 2 mps 744 mmHg 84%
    22:00 +23°C° 0 mm 2 mps 744 mmHg 86%
    23:00 +23°C° 0 mm 2 mps 744 mmHg 87%

    24 June, Monday

    Time Temperature Precipitation Wind Pressure Humidity
    00:00 +23°C° 0 mm 2 mps 744 mmHg 86%
    01:00 +22°C° 0 mm 1 mps 744 mmHg 85%
    02:00 +22°C° 0 mm 1 mps 744 mmHg 85%
    03:00 +22°C° 0 mm 1 mps 744 mmHg 83%
    04:00 +22°C° 0 mm 1 mps 744 mmHg 82%
    05:00 +20°C° 0 mm 0 mps 744 mmHg 81%
    06:00 +23°C° 0 mm 1 mps 744 mmHg 75%
    07:00 +25°C° 0 mm 1 mps 745 mmHg 68%
    08:00 +27°C° 0 mm 1 mps 745 mmHg 61%
    09:00 +28°C° 0 mm 1 mps 745 mmHg 57%
    10:00 +29°C° 0 mm 2 mps 745 mmHg 53%
    11:00 +31°C° 0 mm 2 mps 745 mmHg 49%
    12:00 +31°C° 0 mm 2 mps 745 mmHg 49%
    13:00 +31°C° 0 mm 2 mps 745 mmHg 48%
    14:00 +31°C° 0 mm 2 mps 745 mmHg 48%
    15:00 +31°C° 0.1 mm 2 mps 745 mmHg 50%
    16:00 +31°C° 0.1 mm 2 mps 745 mmHg 52%
    17:00 +30°C° 0.1 mm 2 mps 744 mmHg 55%
    18:00 +29°C° 0.1 mm 2 mps 744 mmHg 61%
    19:00 +27°C° 0.1 mm 2 mps 744 mmHg 67%
    20:00 +25°C° 0.1 mm 2 mps 745 mmHg 73%
    21:00 +24°C° 0.3 mm 2 mps 745 mmHg 77%
    22:00 +24°C° 0.3 mm 2 mps 745 mmHg 82%
    23:00 +22°C° 0.3 mm 3 mps 745 mmHg 86%

    25 June, Tuesday

    Time Temperature Precipitation Wind Pressure Humidity
    00:00 +22°C° 0.1 mm 3 mps 745 mmHg 88%
    01:00 +21°C° 0.1 mm 3 mps 745 mmHg 89%
    02:00 +21°C° 0.1 mm 3 mps 745 mmHg 91%
    03:00 +21°C° 0 mm 4 mps 745 mmHg 92%
    04:00 +21°C° 0 mm 4 mps 745 mmHg 93%
    05:00 +20°C° 0 mm 4 mps 745 mmHg 94%
    06:00 +22°C° 0 mm 4 mps 745 mmHg 88%
    07:00 +23°C° 0 mm 4 mps 746 mmHg 81%
    08:00 +26°C° 0 mm 5 mps 746 mmHg 75%
    09:00 +27°C° 0.5 mm 5 mps 746 mmHg 71%
    10:00 +28°C° 0.5 mm 5 mps 746 mmHg 67%
    11:00 +29°C° 0.5 mm 5 mps 746 mmHg 63%
    12:00 +29°C° 1.5 mm 5 mps 746 mmHg 63%
    13:00 +29°C° 1.5 mm 5 mps 746 mmHg 64%
    14:00 +29°C° 1.5 mm 4 mps 746 mmHg 64%
    15:00 +29°C° 0.8 mm 4 mps 746 mmHg 65%
    16:00 +29°C° 0.8 mm 4 mps 746 mmHg 66%
    17:00 +29°C° 0.8 mm 4 mps 746 mmHg 68%
    18:00 +27°C° 0.2 mm 3 mps 746 mmHg 72%
    19:00 +26°C° 0.2 mm 2 mps 746 mmHg 77%
    20:00 +25°C° 0.2 mm 2 mps 746 mmHg 81%
    21:00 +24°C° 0 mm 2 mps 746 mmHg 83%
    22:00 +23°C° 0 mm 2 mps 747 mmHg 84%
    23:00 +22°C° 0 mm 3 mps 747 mmHg 86%
    Show more